Location: Carrières
(48.9495°N, 2.0407°E)
Time: 21:14:26
(UTC+00:00)

Transit 2A Rocket - Pass Details

Date: 01 May 2024
Orbit: 585 x 908 km, 66.7° (Epoch: 18 May)

Event Time Altitude Azimuth Distance (km) Brightness Sun altitude
Rises 17:16:02 0° 323° (NW) 3,322 8.9 16.9°
Reaches altitude 10° 17:18:24 10° 323° (NW) 2,432 8.3 16.5°
Maximum altitude 17:24:05 82° 237° (WSW) 882 5.7 15.6°
Drops below altitude 10° 17:30:05 10° 150° (SSE) 2,568 7.4 14.6°
Sets 17:32:38 0° 150° (SSE) 3,519 8.1 14.2°
